Wind_Speed
30 32 31 28 25 24 23 21 20 19 17 16 16 15 14 13 12 10 10 10 10 9 9 8 7 6 6 5 4 5 5 4 4 5 7 8 7 7 6 7 8 8 9
29 34 31 29 26 24 22 20 19 18 16 15 15 14 13 12 11 11 10 9 9 9 8 8 7 6 5 5 5 5 6 5 6 7 6 5 7 8 7 7 8 8 9
25 34 31 28 26 23 21 20 18 17 16 14 13 13 12 11 11 10 9 9 8 8 7 7 6 5 5 5 5 7 7 6 7 5 5 5 7 8 8 7 8 8 9
24 30 30 28 26 23 21 20 18 17 16 15 13 12 12 10 9 9 8 7 6 6 6 6 6 3 4 5 5 7 8 6 6 3 4 5 6 7 9 7 6 7 8
30 30 30 29 26 23 21 20 19 17 17 15 13 13 12 11 10 9 7 7 6 6 5 5 4 3 2 3 4 6 7 7 5 4 4 3 5 4 7 8 6 5 7
26 27 30 30 27 24 22 20 19 18 17 16 14 13 12 11 10 9 7 6 6 5 5 4 4 3 3 2 3 5 7 9 5 5 4 3 2 4 6 8 6 4 5
25 26 29 29 27 25 23 21 20 19 17 15 14 13 12 11 10 9 8 8 7 7 6 6 5 5 4 3 3 5 9 10 6 3 2 3 2 2 5 6 4 3 3
17 26 30 29 27 25 23 23 21 20 18 16 15 15 13 13 11 10 10 10 9 9 8 8 7 6 5 4 3 5 9 11 9 5 4 3 5 5 5 7 3 2 1
15 24 29 29 27 26 24 23 22 19 18 17 15 13 12 13 12 11 11 11 11 10 10 9 8 7 5 4 6 8 9 9 11 11 8 6 6 6 7 6 3 2 1
19 21 28 28 28 27 26 24 21 20 17 16 15 15 14 14 13 13 12 12 11 11 10 9 8 7 7 7 9 11 9 9 11 10 7 6 7 10 8 7 4 3 2
23 23 23 27 27 27 26 24 21 19 17 17 17 16 15 15 14 12 12 11 10 9 8 8 8 9 8 10 13 13 10 10 10 10 8 8 9 10 8 8 8 3 3
26 26 26 25 27 28 26 25 23 22 21 20 19 18 17 17 14 13 12 11 11 10 10 9 9 10 12 10 13 16 13 11 10 9 9 9 10 11 10 9 6 2 3
26 27 29 28 29 30 28 27 26 25 23 22 21 20 19 18 17 15 15 13 12 12 11 10 10 10 11 11 10 12 13 12 11 10 9 10 11 11 8 3 4 4 3
26 28 28 29 30 32 30 30 29 27 27 26 24 23 22 20 19 17 16 14 14 13 12 11 11 11 11 13 11 11 11 10 10 9 7 7 6 3 4 8 6 7 7
24 26 31 32 32 34 34 33 32 31 31 28 27 26 25 23 22 20 16 16 16 15 14 13 11 9 10 12 11 12 11 10 8 6 5 2 2 5 14 14 7 8 7
25 25 30 35 36 34 34 36 35 34 33 31 30 30 28 26 25 22 20 19 18 17 15 13 11 12 12 14 13 12 11 9 7 5 3 3 9 10 17 17 10 9 5
27 25 26 29 34 36 33 32 35 36 34 34 32 31 31 28 26 23 23 21 19 17 16 16 16 16 13 14 13 10 9 8 6 4 1 3 7 11 14 16 13 8 3
32 31 29 33 34 36 36 33 33 34 36 36 34 33 33 30 28 26 26 23 21 19 19 18 17 17 15 13 13 11 7 6 5 3 1 1 3 5 9 11 9 6 4
38 35 35 37 37 37 37 35 33 35 35 36 34 33 34 34 32 31 29 27 26 23 22 23 22 18 18 17 14 11 7 5 4 3 1 1 1 2 4 8 8 6 3
31 37 40 40 41 41 39 38 33 33 35 34 34 33 34 35 34 33 32 31 30 28 27 27 24 22 19 18 16 12 8 5 4 4 3 2 2 3 2 2 0 1 2
35 37 43 46 46 45 45 44 40 40 40 38 36 33 33 35 36 34 33 34 32 31 31 29 27 25 26 22 22 17 14 8 6 6 6 5 3 4 5 3 3 4 4
41 44 44 48 52 49 49 47 45 42 42 40 38 34 32 33 34 34 34 34 32 32 32 32 33 33 31 29 26 25 17 15 13 11 9 8 7 5 3 3 3 5 6
32 45 47 49 55 53 51 52 49 46 43 41 38 36 35 33 32 33 31 29 31 31 32 33 35 35 37 36 32 21 14 11 23 15 13 10 8 8 7 7 6 6 6
22 30 44 50 57 55 56 55 55 52 50 48 42 39 37 35 32 34 34 31 31 32 31 33 32 36 35 38 37 31 16 18 18 15 18 14 11 10 9 9 8 8 8
22 20 32 48 55 57 59 58 56 49 43 43 42 39 36 33 31 32 36 33 32 33 33 33 34 34 36 37 39 39 27 19 23 23 29 24 16 10 8 8 6 4 4
21 15 21 37 44 48 52 54 53 47 44 41 41 40 38 36 33 33 35 33 33 35 35 34 34 34 34 34 37 35 35 28 27 26 21 30 23 15 9 7 5 3 3
Wind_Direction
178 179 171 167 166 162 156 151 146 145 145 146 142 141 142 145 147 149 150 152 152 154 150 145 142 139 135 128 112 98 94 99 98 98 88 77 65 58 46 23 18 26 32
174 182 174 171 171 167 159 153 150 147 149 148 146 143 142 143 145 151 153 154 153 151 148 147 146 142 137 129 115 105 107 114 110 89 72 74 45 50 44 30 21 28 33
175 178 175 176 175 170 163 157 155 154 154 153 154 151 148 150 151 153 156 157 156 153 152 154 149 143 137 131 123 116 117 132 125 92 75 114 45 53 36 22 23 33 38
182 183 178 180 179 174 167 163 162 161 160 160 163 162 158 158 158 159 160 163 163 161 155 155 153 147 146 138 132 125 128 149 138 146 113 111 60 39 26 16 19 37 43
183 186 183 183 182 178 173 170 168 168 168 167 171 174 172 171 173 174 177 177 177 178 183 186 190 174 169 155 139 131 141 171 156 130 90 61 65 31 10 2 359 19 40
183 188 189 186 185 181 178 176 175 175 177 174 180 185 182 183 185 186 190 196 200 200 198 198 195 204 210 194 154 138 158 184 174 140 127 133 28 16 355 354 352 3 36
185 191 189 188 187 185 182 181 182 182 183 183 187 195 189 185 187 188 196 206 212 218 221 228 227 233 229 216 176 150 181 192 160 141 156 146 118 307 339 331 327 322 3
202 191 190 189 190 189 188 187 189 189 190 194 195 201 186 184 190 196 201 210 218 223 227 231 236 238 233 221 182 181 198 198 179 182 160 216 270 303 324 325 291 278 306
193 193 190 192 193 193 193 194 194 197 198 196 196 198 188 193 197 200 205 212 218 224 229 230 231 228 216 186 167 186 198 195 180 184 196 215 252 278 297 315 292 259 272
186 189 196 198 199 198 196 200 202 197 196 197 198 199 198 202 201 202 204 208 213 217 222 224 223 217 204 186 168 190 182 182 181 191 199 229 244 256 279 290 263 214 213
193 197 200 205 204 205 204 201 200 199 198 202 203 204 205 208 204 201 201 203 204 206 210 214 211 207 189 191 188 195 187 183 190 194 209 229 247 265 282 286 289 231 228
202 204 206 210 210 208 203 205 205 203 205 205 207 208 206 211 205 201 201 200 193 193 196 201 201 196 185 185 192 195 194 193 204 217 227 244 262 273 275 268 258 200 205
213 212 211 215 218 213 211 211 210 209 210 208 208 209 211 211 207 204 200 197 193 193 193 191 187 183 179 188 191 191 204 211 223 238 252 266 273 266 264 179 119 178 178
212 213 214 218 217 216 214 215 214 212 211 210 209 209 212 211 203 192 194 199 198 194 193 186 184 188 192 184 199 203 210 213 218 234 254 271 274 237 145 117 124 130 165
217 218 216 219 221 220 213 214 214 214 215 212 211 212 211 210 203 199 198 199 197 196 196 190 186 190 192 197 215 213 209 208 220 233 237 224 115 158 122 117 132 135 151
220 224 223 221 221 224 219 217 215 215 216 213 213 214 214 212 209 205 205 202 200 201 195 189 178 177 177 182 194 195 205 212 213 221 196 111 106 130 126 122 137 123 142
230 228 226 229 224 227 228 224 220 218 217 216 214 215 218 214 213 214 212 207 202 200 199 193 181 176 172 172 182 189 193 197 203 209 172 91 92 126 143 146 152 160 147
232 228 231 226 225 226 227 226 223 219 219 220 216 215 217 216 216 213 213 211 208 202 202 196 189 176 171 176 180 184 200 203 214 207 252 19 90 112 148 163 176 193 189
236 233 229 227 228 227 226 226 221 220 222 222 219 218 217 215 214 213 215 217 218 211 206 199 189 188 176 171 171 173 187 212 232 255 252 257 103 153 153 147 165 193 210
246 244 238 232 229 226 226 221 225 223 224 222 223 224 222 219 216 213 214 216 215 210 201 194 192 185 187 181 173 172 172 187 216 264 249 190 192 212 209 196 175 79 60
241 243 239 229 228 226 221 218 220 220 219 220 224 227 225 224 220 219 219 214 211 211 203 199 193 189 180 185 175 160 156 176 210 218 244 267 249 206 205 222 288 325 352
247 242 237 235 228 226 227 223 221 221 219 221 220 222 226 230 228 227 223 219 216 213 207 203 201 188 189 189 185 166 152 162 186 194 214 243 251 257 275 265 286 297 309
253 248 240 238 234 229 226 221 217 219 217 216 219 221 222 226 229 230 227 224 224 221 218 209 205 206 193 191 198 181 160 182 173 177 197 221 227 236 246 262 274 284 296
252 240 243 237 230 226 220 220 220 219 211 213 215 219 221 224 224 223 225 224 228 227 221 221 212 210 210 201 194 202 197 194 175 170 188 198 214 235 238 240 250 265 297
311 292 242 227 224 221 219 219 218 214 216 215 214 216 220 222 223 221 224 223 225 225 225 224 221 213 213 212 206 207 210 198 193 181 178 183 189 201 232 249 244 260 281
354 312 240 226 219 214 212 216 216 212 214 213 209 211 219 222 220 218 222 225 224 225 227 228 225 222 220 217 219 219 218 206 198 198 185 188 186 178 193 213 237 247 277
Height
1495 1500 1503 1506 1510 1511 1511 1512 1514 1516 1519 1521 1522 1524 1525 1526 1528 1529 1530 1531 1532 1533 1533 1534 1535 1535 1536 1537 1537 1538 1539 1539 1539 1539 1539 1539 1539 1538 1538 1538 1537 1536 1536
1493 1499 1502 1505 1509 1511 1510 1511 1514 1516 1519 1521 1522 1524 1525 1526 1527 1529 1530 1531 1532 1533 1534 1534 1535 1536 1536 1537 1538 1539 1539 1538 1539 1539 1539 1540 1539 1539 1539 1539 1538 1537 1537
1495 1499 1502 1505 1507 1509 1509 1511 1513 1516 1519 1520 1522 1523 1525 1526 1527 1528 1530 1531 1532 1532 1533 1534 1535 1535 1536 1537 1537 1538 1539 1538 1538 1539 1539 1540 1540 1540 1540 1540 1539 1539 1538
1496 1499 1501 1504 1508 1508 1509 1510 1513 1515 1517 1520 1522 1523 1524 1526 1527 1528 1529 1530 1531 1532 1533 1534 1534 1535 1536 1536 1537 1538 1539 1537 1538 1538 1539 1540 1540 1541 1541 1541 1541 1540 1539
1493 1497 1499 1503 1506 1508 1509 1510 1512 1514 1516 1518 1521 1522 1524 1526 1527 1527 1529 1530 1531 1532 1533 1534 1534 1535 1536 1536 1537 1538 1537 1536 1536 1537 1538 1540 1540 1540 1541 1541 1541 1541 1540
1494 1497 1500 1502 1504 1506 1507 1510 1511 1513 1516 1517 1519 1521 1523 1525 1526 1526 1528 1529 1530 1532 1533 1533 1534 1535 1535 1536 1537 1537 1536 1535 1536 1537 1537 1539 1541 1541 1540 1542 1541 1541 1541
1492 1496 1500 1503 1504 1505 1506 1508 1510 1512 1515 1516 1518 1520 1521 1523 1525 1525 1527 1528 1529 1531 1532 1533 1533 1534 1534 1535 1536 1537 1534 1534 1536 1537 1538 1538 1538 1540 1540 1541 1541 1541 1541
1493 1494 1497 1501 1504 1505 1506 1507 1509 1511 1513 1515 1516 1518 1520 1521 1524 1524 1525 1527 1528 1529 1530 1531 1532 1533 1534 1535 1536 1535 1533 1534 1536 1537 1538 1539 1539 1540 1540 1540 1540 1540 1540
1493 1494 1497 1500 1503 1504 1506 1507 1508 1510 1512 1514 1515 1517 1518 1520 1521 1523 1524 1525 1527 1528 1529 1530 1531 1532 1533 1534 1534 1532 1532 1533 1535 1536 1537 1538 1538 1539 1539 1539 1539 1539 1539
1493 1495 1497 1498 1501 1503 1504 1507 1508 1509 1511 1513 1515 1516 1517 1518 1519 1521 1522 1524 1525 1526 1527 1528 1529 1530 1532 1532 1533 1531 1531 1533 1534 1535 1536 1536 1537 1537 1538 1538 1538 1538 1539
1490 1493 1496 1498 1500 1502 1504 1505 1507 1509 1511 1512 1514 1515 1516 1517 1518 1520 1521 1522 1523 1525 1526 1527 1527 1529 1530 1530 1531 1530 1532 1533 1533 1534 1534 1535 1535 1536 1537 1537 1537 1537 1538
1485 1489 1492 1495 1497 1499 1501 1503 1505 1507 1509 1510 1512 1513 1514 1516 1518 1519 1520 1521 1522 1523 1524 1525 1526 1528 1529 1529 1528 1529 1531 1532 1532 1532 1533 1533 1533 1534 1534 1535 1535 1535 1536
1483 1486 1487 1490 1492 1494 1497 1500 1502 1504 1506 1508 1509 1511 1513 1515 1516 1517 1519 1520 1521 1522 1522 1523 1525 1527 1528 1529 1528 1529 1530 1531 1532 1532 1533 1533 1532 1532 1533 1533 1533 1534 1534
1476 1481 1484 1485 1487 1489 1492 1495 1498 1500 1502 1504 1506 1507 1509 1512 1514 1515 1517 1519 1520 1520 1521 1522 1524 1526 1528 1529 1529 1529 1530 1530 1530 1531 1531 1531 1531 1531 1532 1533 1533 1532 1532
1471 1473 1476 1479 1481 1483 1485 1488 1491 1494 1497 1500 1502 1503 1506 1509 1511 1513 1514 1516 1518 1519 1520 1521 1523 1524 1527 1528 1528 1529 1530 1530 1531 1530 1530 1530 1529 1530 1531 1533 1532 1532 1532
1465 1467 1471 1474 1477 1479 1481 1483 1485 1488 1491 1494 1497 1498 1501 1505 1508 1509 1511 1513 1515 1516 1518 1520 1521 1523 1525 1527 1527 1528 1529 1530 1530 1530 1530 1530 1530 1530 1531 1533 1531 1531 1530
1459 1461 1462 1465 1469 1473 1477 1481 1483 1485 1488 1490 1493 1496 1498 1500 1504 1506 1509 1511 1513 1515 1517 1519 1519 1521 1523 1525 1527 1527 1528 1529 1530 1530 1530 1530 1531 1531 1530 1530 1531 1529 1528
1458 1458 1460 1461 1461 1464 1468 1473 1478 1481 1483 1486 1488 1491 1494 1498 1500 1503 1506 1508 1511 1513 1515 1517 1518 1519 1521 1523 1525 1527 1528 1528 1529 1530 1530 1531 1531 1531 1531 1531 1530 1529 1528
1450 1452 1454 1457 1457 1459 1463 1467 1470 1475 1479 1483 1486 1488 1490 1492 1495 1498 1501 1504 1508 1510 1512 1513 1514 1516 1518 1520 1523 1525 1527 1528 1528 1529 1530 1530 1530 1529 1531 1531 1530 1529 1528
1444 1445 1447 1450 1453 1455 1461 1465 1469 1472 1475 1478 1481 1485 1487 1490 1493 1495 1497 1500 1502 1505 1507 1509 1511 1512 1515 1517 1520 1523 1526 1527 1527 1528 1528 1528 1529 1528 1529 1531 1531 1530 1529
1436 1438 1440 1441 1444 1448 1452 1457 1461 1460 1464 1471 1476 1482 1486 1488 1491 1493 1494 1495 1497 1499 1502 1505 1506 1508 1511 1514 1516 1521 1524 1527 1527 1528 1527 1527 1527 1527 1527 1529 1530 1529 1529
1426 1425 1429 1432 1437 1439 1443 1448 1453 1456 1460 1465 1469 1475 1483 1487 1490 1492 1493 1494 1496 1497 1499 1500 1500 1502 1505 1508 1511 1515 1521 1526 1526 1526 1528 1528 1527 1525 1526 1525 1528 1529 1528
1421 1418 1421 1425 1425 1431 1436 1442 1447 1451 1456 1462 1467 1470 1473 1479 1485 1492 1495 1497 1498 1499 1500 1501 1500 1498 1498 1501 1503 1504 1512 1515 1521 1525 1525 1525 1527 1526 1526 1525 1525 1526 1527
1418 1414 1414 1416 1417 1425 1429 1434 1438 1441 1444 1450 1457 1464 1467 1471 1475 1482 1487 1492 1494 1496 1498 1500 1503 1501 1498 1495 1498 1499 1499 1500 1509 1519 1523 1524 1525 1524 1524 1524 1526 1525 1524
1416 1413 1412 1415 1411 1414 1418 1423 1430 1439 1446 1448 1453 1459 1464 1466 1470 1475 1479 1484 1489 1491 1493 1495 1497 1500 1501 1500 1495 1494 1497 1497 1499 1502 1511 1517 1522 1522 1522 1523 1524 1525 1523
1420 1418 1416 1416 1414 1415 1416 1419 1424 1430 1437 1443 1448 1452 1456 1459 1463 1466 1471 1478 1484 1486 1487 1491 1493 1496 1496 1496 1497 1496 1495 1495 1495 1498 1502 1510 1514 1519 1521 1522 1523 1523 1523